Lid_Strength_Index
2 3 3 3 3 3 2 2 2 1 1 1 1 1 2 1 1 2 2 2 2 3
2 2 3 2 2 3 2 1 2 1 2 1 1 2 2 2 2 2 2 1 1 3
2 2 2 2 2 2 2 1 2 2 2 2 2 1 2 2 2 2 2 2 2 2
2 2 2 2 2 2 2 1 1 2 2 2 1 2 2 2 2 2 2 1 2 2
2 2 2 2 2 2 2 1 1 1 1 1 1 1 2 2 2 2 2 2 2 2
2 2 2 2 2 2 2 2 1 1 1 1 1 1 2 1 2 1 2 2 2 2
2 2 2 2 2 2 2 2 1 1 1 1 1 1 1 1 2 1 2 2 1 1
2 2 2 2 2 2 2 2 1 1 1 1 2 1 2 2 2 2 2 2 1 2
2 2 2 2 2 2 2 2 2 2 1 2 2 7 5 3 2 2 2 2 2 3
2 2 2 2 2 2 3 2 2 2 3 4 5 10 7 4 1 1 2 2 2 1
2 2 2 2 2 2 2 2 2 2 3 4 5 9 9 5 1 1 1 2 2 2
2 2 2 3 3 3 2 3 3 2 3 3 3 9 9 3 1 2 3 3 2 2
2 2 2 2 2 3 2 3 2 2 3 4 3 9 9 4 2 3 3 2 3 7
2 2 2 3 3 2 2 2 2 2 2 2 3 5 8 6 1 2 3 3 3 5